| time (UTC) | temp F | wind direction | speed MPH | gust MPH | rain 1hr in | rain 24hr in | rain mn in | humidity % | barometer mb |
| 20260503054424 | 51 | 0 | 0.0 | 0.0 | 0.00 | 0.06 | 0.06 | 78 | 1016.8 |
| 20260503053403 | 52 | 329 | 0.0 | 0.0 | 0.00 | 0.06 | 0.06 | 79 | 1016.9 |
| 20260503051323 | 52 | 0 | 0.0 | 0.0 | 0.00 | 0.06 | 0.06 | 77 | 1016.8 |
| 20260503050303 | 52 | 0 | 0.0 | 0.0 | 0.00 | 0.06 | 0.06 | 76 | 1017.3 |
| 20260503045243 | 53 | 0 | 0.0 | 0.0 | 0.00 | 0.06 | 0.06 | 76 | 1017.3 |
| 20260503044224 | 53 | 0 | 0.0 | 0.0 | 0.00 | 0.06 | 0.06 | 71 | 1017.5 |
| 20260503043203 | 53 | 0 | 0.0 | 0.0 | 0.00 | 0.06 | 0.06 | 71 | 1017.0 |
| 20260503042143 | 53 | 0 | 0.0 | 0.0 | 0.00 | 0.06 | 0.06 | 73 | 1017.0 |
| 20260503041124 | 53 | 0 | 0.0 | 0.0 | 0.00 | 0.06 | 0.06 | 73 | 1017.0 |
| 20260503035045 | 53 | 0 | 0.0 | 0.0 | 0.00 | 0.06 | 0.06 | 75 | 1017.0 |
| 20260503034028 | 53 | 0 | 0.0 | 0.0 | 0.00 | 0.06 | 0.06 | 74 | 1017.0 |
| 20260503033004 | 54 | 0 | 0.0 | 0.0 | 0.00 | 0.06 | 0.06 | 73 | 1016.8 |
| 20260503031946 | 54 | 0 | 0.0 | 0.0 | 0.00 | 0.06 | 0.06 | 68 | 1016.7 |
| 20260503030926 | 54 | 0 | 0.0 | 0.0 | 0.00 | 0.06 | 0.06 | 71 | 1016.2 |
| 20260503025909 | 54 | 0 | 0.0 | 0.0 | 0.00 | 0.06 | 0.06 | 70 | 1016.1 |
| 20260503023828 | 54 | 0 | 0.0 | 0.0 | 0.00 | 0.06 | 0.06 | 68 | 1015.6 |
| 20260503022813 | 54 | 0 | 0.0 | 0.0 | 0.00 | 0.06 | 0.06 | 67 | 1016.0 |
| 20260503021756 | 55 | 0 | 0.0 | 0.0 | 0.00 | 0.06 | 0.06 | 69 | 1015.9 |
| 20260503020741 | 55 | 0 | 0.0 | 0.0 | 0.00 | 0.06 | 0.06 | 67 | 1015.9 |
| 20260503015721 | 55 | 0 | 0.0 | 0.0 | 0.01 | 0.06 | 0.06 | 68 | 1015.8 |
| 20260503014710 | 55 | 0 | 0.0 | 0.0 | 0.03 | 0.06 | 0.06 | 68 | 1015.6 |
| 20260503013700 | 55 | 0 | 0.0 | 0.0 | 0.03 | 0.06 | 0.06 | 70 | 1015.8 |
| 20260503012650 | 55 | 0 | 0.0 | 0.0 | 0.03 | 0.06 | 0.06 | 71 | 1016.1 |
| 20260503011638 | 55 | 0 | 0.0 | 0.0 | 0.04 | 0.06 | 0.06 | 72 | 1016.3 |
| 20260503010629 | 56 | 5 | 0.0 | 0.0 | 0.03 | 0.05 | 0.06 | 73 | 1016.5 |
| 20260503004611 | 58 | 0 | 0.0 | 0.0 | 0.03 | 0.03 | 0.03 | 70 | 1016.3 |
| 20260503003601 | 59 | 0 | 0.0 | 0.0 | 0.03 | 0.03 | 0.03 | 66 | 1015.6 |
| 20260503002543 | 60 | 0 | 0.0 | 0.0 | 0.03 | 0.03 | 0.03 | 59 | 1015.1 |
| 20260503001526 | 62 | 0 | 0.0 | 0.0 | 0.02 | 0.02 | 0.02 | 60 | 1015.2 |
| 20260503000517 | 65 | 0 | 2.0 | 6.0 | 0.00 | 0.00 | 0.00 | 49 | 1015.1 |
| 20260502235455 | 65 | 0 | 3.0 | 15.0 | 0.00 | 0.00 | 0.00 | 39 | 1014.7 |
| 20260502234435 | 65 | 0 | 4.0 | 11.0 | 0.00 | 0.00 | 0.00 | 37 | 1014.5 |
| 20260502233428 | 65 | 0 | 7.0 | 13.0 | 0.00 | 0.00 | 0.00 | 34 | 1014.5 |
| 20260502232412 | 66 | 0 | 2.0 | 10.0 | 0.00 | 0.00 | 0.00 | 33 | 1014.5 |
| 20260502231356 | 66 | 0 | 6.0 | 11.0 | 0.00 | 0.00 | 0.00 | 32 | 1014.5 |
| 20260502230333 | 66 | 0 | 9.0 | 14.0 | 0.00 | 0.00 | 0.00 | 32 | 1014.7 |
| 20260502224252 | 67 | 0 | 8.0 | 13.0 | 0.00 | 0.00 | 0.00 | 30 | 1014.9 |
| 20260502222215 | 68 | 190 | 3.0 | 6.0 | 0.00 | 0.00 | 0.00 | 28 | 1015.1 |
| 20260502221155 | 67 | 0 | 1.0 | 8.0 | 0.00 | 0.00 | 0.00 | 29 | 1015.1 |
| 20260502220133 | 67 | 0 | 4.0 | 9.0 | 0.00 | 0.00 | 0.00 | 28 | 1015.2 |
| 20260502215117 | 68 | 0 | 6.0 | 12.0 | 0.00 | 0.00 | 0.00 | 27 | 1015.5 |
| 20260502212013 | 69 | 209 | 4.0 | 12.0 | 0.00 | 0.00 | 0.00 | 27 | 1015.8 |
| 20260502210956 | 69 | 0 | 3.0 | 11.0 | 0.00 | 0.00 | 0.00 | 26 | 1015.9 |
| 20260502205933 | 69 | 0 | 4.0 | 10.0 | 0.00 | 0.00 | 0.00 | 25 | 1015.9 |
| 20260502204916 | 69 | 0 | 3.0 | 6.0 | 0.00 | 0.00 | 0.00 | 27 | 1015.9 |
| 20260502203904 | 69 | 0 | 3.0 | 12.0 | 0.00 | 0.00 | 0.00 | 26 | 1016.0 |
| 20260502202845 | 69 | 0 | 2.0 | 10.0 | 0.00 | 0.00 | 0.00 | 25 | 1016.0 |
| 20260502201829 | 69 | 0 | 4.0 | 10.0 | 0.00 | 0.00 | 0.00 | 26 | 1016.1 |
| 20260502200805 | 70 | 160 | 3.0 | 13.0 | 0.00 | 0.00 | 0.00 | 26 | 1016.1 |
| 20260502195746 | 70 | 0 | 3.0 | 9.0 | 0.00 | 0.00 | 0.00 | 25 | 1016.1 |
| 20260502194726 | 71 | 0 | 2.0 | 6.0 | 0.00 | 0.00 | 0.00 | 26 | 1016.2 |
| 20260502193705 | 71 | 0 | 1.0 | 5.0 | 0.00 | 0.00 | 0.00 | 25 | 1016.2 |
| 20260502192657 | 70 | 0 | 4.0 | 12.0 | 0.00 | 0.00 | 0.00 | 26 | 1016.3 |
| 20260502191630 | 71 | 0 | 2.0 | 15.0 | 0.00 | 0.00 | 0.00 | 26 | 1016.3 |
| 20260502190610 | 71 | 0 | 1.0 | 4.0 | 0.00 | 0.00 | 0.00 | 27 | 1016.5 |
| 20260502184535 | 70 | 0 | 4.0 | 11.0 | 0.00 | 0.00 | 0.00 | 27 | 1016.7 |
| 20260502182518 | 71 | 0 | 6.0 | 14.0 | 0.00 | 0.00 | 0.00 | 26 | 1016.9 |
| 20260502181501 | 71 | 0 | 1.0 | 5.0 | 0.00 | 0.00 | 0.00 | 26 | 1016.8 |
| 20260502180454 | 71 | 0 | 2.0 | 7.0 | 0.00 | 0.00 | 0.00 | 26 | 1016.9 |
| 20260502170354 | 67 | 0 | 0.0 | 0.0 | 0.00 | 0.00 | 0.00 | 31 | 1017.0 |
| 20260502164325 | 65 | 0 | 0.0 | 0.0 | 0.00 | 0.00 | 0.00 | 33 | 1017.0 |
| 20260502162252 | 64 | 0 | 0.0 | 0.0 | 0.00 | 0.00 | 0.00 | 37 | 1017.0 |
| 20260502160228 | 62 | 0 | 2.0 | 4.0 | 0.00 | 0.00 | 0.00 | 38 | 1017.2 |
| 20260502152111 | 57 | 0 | 2.0 | 5.0 | 0.00 | 0.00 | 0.00 | 48 | 1017.2 |
| 20260502151048 | 56 | 0 | 0.0 | 0.0 | 0.00 | 0.00 | 0.00 | 49 | 1017.2 |
| 20260502130649 | 53 | 0 | 0.0 | 0.0 | 0.00 | 0.00 | 0.00 | 53 | 1016.1 |
| 20260502123547 | 55 | 0 | 0.0 | 0.0 | 0.00 | 0.00 | 0.00 | 49 | 1016.2 |
| 20260502122527 | 55 | 0 | 0.0 | 0.0 | 0.00 | 0.00 | 0.00 | 49 | 1016.1 |
| 20260502121507 | 55 | 0 | 0.0 | 0.0 | 0.00 | 0.00 | 0.00 | 51 | 1016.2 |
| 20260502120450 | 54 | 0 | 0.0 | 0.0 | 0.00 | 0.00 | 0.00 | 52 | 1016.1 |
| 20260502114407 | 54 | 0 | 0.0 | 0.0 | 0.00 | 0.00 | 0.00 | 46 | 1016.1 |
| 20260502112332 | 56 | 0 | 0.0 | 0.0 | 0.00 | 0.00 | 0.00 | 44 | 1016.2 |
| 20260502111317 | 56 | 0 | 0.0 | 0.0 | 0.00 | 0.00 | 0.00 | 42 | 1016.1 |
| 20260502110256 | 57 | 0 | 0.0 | 0.0 | 0.00 | 0.00 | 0.00 | 43 | 1016.1 |
| 20260502105240 | 56 | 0 | 0.0 | 0.0 | 0.00 | 0.00 | 0.00 | 41 | 1016.1 |
| 20260502104223 | 56 | 0 | 0.0 | 0.0 | 0.00 | 0.00 | 0.00 | 37 | 1016.1 |
| 20260502103217 | 56 | 0 | 0.0 | 0.0 | 0.00 | 0.00 | 0.00 | 35 | 1016.1 |
| 20260502102203 | 57 | 0 | 0.0 | 0.0 | 0.00 | 0.00 | 0.00 | 36 | 1016.1 |
| 20260502101155 | 57 | 0 | 0.0 | 0.0 | 0.00 | 0.00 | 0.00 | 37 | 1016.0 |
| 20260502100151 | 57 | 0 | 0.0 | 0.0 | 0.00 | 0.00 | 0.00 | 38 | 1016.0 |
| 20260502091050 | 58 | 0 | 0.0 | 0.0 | 0.00 | 0.00 | 0.00 | 39 | 1016.5 |
| 20260502065701 | 57 | 0 | 0.0 | 0.0 | 0.00 | 0.00 | 0.00 | 29 | 1017.4 |
| 20260502064648 | 57 | 0 | 0.0 | 0.0 | 0.00 | 0.00 | 0.00 | 24 | 1017.4 |
| 20260502063639 | 57 | 0 | 0.0 | 0.0 | 0.00 | 0.00 | 0.00 | 23 | 1017.3 |
| 20260502062632 | 57 | 0 | 0.0 | 0.0 | 0.00 | 0.00 | 0.00 | 22 | 1017.3 |
| 20260502061628 | 57 | 286 | 0.0 | 0.0 | 0.00 | 0.00 | 0.00 | 22 | 1017.4 |
| 20260502060619 | 58 | 286 | 0.0 | 0.0 | 0.00 | 0.00 | 0.00 | 22 | 1017.3 |